This is the latest recevied weather packets stored in our database for station/object KD0KHX-10. If no packets are shown the sender has not sent any weather packets the latest 10 day(s).
| Time | Temp. | Humidity | Pressure | Rain* | Wind** | Luminosity | Snow |
|---|---|---|---|---|---|---|---|
| 1778097903 | 7.78° C | 79% | 1013.6 hPa | 0 mm | - | - | - |
| 1778097603 | 7.22° C | 79% | 1013.7 hPa | 0 mm | - | - | - |
| 1778097303 | 7.22° C | 79% | 1013.7 hPa | 0 mm | - | - | - |
| 1778097003 | 7.78° C | 79% | 1013.9 hPa | 0 mm | - | - | - |
| 1778096973 | 7.78° C | 79% | 1013.9 hPa | 0 mm | - | - | - |
| 1778096403 | 7.22° C | 78% | 1013.9 hPa | 0 mm | - | - | - |
| 1778096103 | 7.22° C | 78% | 1014 hPa | 0 mm | - | - | - |
| 1778096072 | 7.22° C | 78% | 1013.9 hPa | 0 mm | - | - | - |
| 1778095638 | 7.22° C | 78% | 1014 hPa | 0 mm | - | - | - |
| 1778095203 | 7.22° C | 79% | 1014 hPa | 0 mm | - | - | - |
| 1778094903 | 7.22° C | 79% | 1014 hPa | 0 mm | - | - | - |
| 1778094872 | 7.22° C | 80% | 1014 hPa | 0 mm | - | - | - |
| 1778094303 | 6.67° C | 80% | 1014 hPa | 0 mm | - | - | - |
| 1778094003 | 6.67° C | 80% | 1014.1 hPa | 0 mm | - | - | - |
| 1778093838 | 6.67° C | 81% | 1014.1 hPa | 0 mm | - | - | - |
| 1778093403 | 6.67° C | 81% | 1014.2 hPa | 0 mm | - | - | - |
| 1778093103 | 6.67° C | 81% | 1014.2 hPa | 0 mm | - | - | - |
| 1778093072 | 6.67° C | 81% | 1014.2 hPa | 0 mm | - | - | - |
| 1778092503 | 6.11° C | 81% | 1014.3 hPa | 0 mm | - | - | - |
| 1778092203 | 6.11° C | 81% | 1014.2 hPa | 0 mm | - | - | - |
| 1778091903 | 6.11° C | 80% | 1014.2 hPa | 0 mm | - | - | - |
| 1778091603 | 6.11° C | 80% | 1014.3 hPa | 0 mm | - | - | - |
| 1778091303 | 6.11° C | 79% | 1014.3 hPa | 0 mm | - | - | - |
| 1778091139 | 6.11° C | 79% | 1014.3 hPa | 0 mm | - | - | - |
| 1778090703 | 5.56° C | 79% | 1014.4 hPa | 0 mm | - | - | - |
* Rain latest hour (hover to see other rain measurements)
** Current wind speed in m/s (hover to see current wind gust speed)